{"data":{"norad_id":55612,"intl_designator":"2023-020AV","name":"STARLINK-5734","alt_names":[],"object_type":"PAYLOAD","status":"ACTIVE","operator":null,"country":"US","launch_date":"2023-02-12","launch_site_code":"AFETR","launch_vehicle":null,"mission":null,"orbit_class":"UNKNOWN","rcs_meters":null,"size_class":null,"mass_kg":null,"dimensions":null,"purposes":["comms"],"wikipedia_slug":null,"has_3d_model":false,"image_url":null,"decayed_at":null,"tle_current":{"epoch":"2026-09-20T15:58:44.255136Z","epoch_age_seconds":86112,"freshness":"FRESH","line1":"1 55612U 23020AV  26263.66578999  .00000587  00000+0  30868-4 0  9992","line2":"2 55612  43.0045 333.5136 0001902 277.9856  82.0780 15.27576130198850","mean_motion":15.2757613,"eccentricity":0.0001902,"inclination_deg":43.0045,"raan_deg":333.5136,"arg_perigee_deg":277.9856,"mean_anomaly_deg":82.078,"bstar":3.0868e-5,"rev_number":19885,"period_min":94.266987531417,"perigee_km":481.7556844368,"apogee_km":484.36568403589,"semimajor_km":6861.1976842363,"source":"CELESTRAK","updated_at":"2026-09-21T09:00:33.274884Z"}}}